Weather History for Christchurch, New Zealand

Change the Weather History Date:

Sunday, February 24, 2013

  Actual Average Record
Temperature  
Mean Temperature 56 °F -  
Max Temperature 71 °F 68 °F 86 °F (2008)
Min Temperature 41 °F 51 °F 39 °F (2006)
Degree Days  
Heating Degree Days 9    
Growing Degree Days 6 (Base 50)    
Moisture  
Dew Point 47 °F    
Average Humidity 77    
Maximum Humidity 100    
Minimum Humidity 43    
Precipitation  
Precipitation 0.00 in - - ()
Sea Level Pressure  
Sea Level Pressure 30.41 in    
Wind  
Wind Speed 4 mph ()    
Max Wind Speed 12 mph    
Max Gust Speed -    
Visibility 6.2 miles    
Events      
Averages and records for this station are not official NWS values.
T = Trace of Precipitation, MM = Missing Value Source: Averaged Metar Reports

Daily Weather History Graph

Daily Weather History Graph

Search for Another Location

Airport:

Trip Planner

Search our weather history database for the weather conditions in past years. The results will help you decide how hot, cold, wet, or windy it might be!

Date:

Astronomy

Feb. 24, 2013 Rise Set
Actual Time 7:01 AM NZDT 8:23 PM NZDT
Civil Twilight 6:31 AM NZDT 8:53 PM NZDT
Nautical Twilight 5:55 AM NZDT 9:29 PM NZDT
Astronomical Twilight 5:17 AM NZDT 10:06 PM NZDT
Moon 7:06 PM NZDT (2/24) 5:04 AM NZDT (2/24)
Length of Visible Light 14h 21m
Length of Day
13h 22m
Waxing Gibbous, 96% of the Moon is Illuminated
Feb 24
Waxing Gibbous
Feb 26
Full
Mar 5
Last Quarter
Mar 12
New
Mar 20
First Quarter

Hourly Weather History & Observations

Time (NZDT) Temp. Windchill Dew Point Humidity Pressure Visibility Wind Dir Wind Speed Gust Speed Precip Events Conditions
12:00 AM 46.4 °F 45.2 °F 44.6 °F 93% 30.39 in - WSW 3.5 mph - N/A   Clear
1:00 AM 46.4 °F 45.2 °F 44.6 °F 93% 30.42 in - SW 3.5 mph - N/A   Clear
2:00 AM 46.4 °F 44.3 °F 46.4 °F 100% 30.42 in - WSW 4.6 mph - N/A   Clear
3:00 AM 42.8 °F 41.1 °F 42.8 °F 100% 30.39 in - WNW 3.5 mph - N/A   Clear
4:00 AM 42.8 °F - 42.8 °F 100% 30.39 in - West 2.3 mph - N/A   Clear
5:00 AM 41.0 °F - 41.0 °F 100% 30.42 in - West 2.3 mph - N/A   Clear
6:00 AM 41.0 °F - 41.0 °F 100% 30.39 in - West 1.2 mph - N/A   Clear
7:00 AM 41.0 °F - 39.2 °F 93% 30.39 in - West 2.3 mph - N/A   Clear
8:00 AM 46.4 °F 45.2 °F 46.4 °F 100% 30.39 in - West 3.5 mph - N/A   Clear
9:00 AM 51.8 °F - 51.8 °F 100% 30.39 in - West 3.5 mph - N/A   Clear
10:00 AM 59.0 °F - 51.8 °F 77% 30.42 in - South 3.5 mph - N/A   Clear
11:00 AM 64.4 °F - 44.6 °F 49% 30.42 in - South 2.3 mph - N/A   Clear
12:00 PM 66.2 °F - 42.8 °F 43% 30.42 in - WSW 2.3 mph - N/A   Clear
1:00 PM 68.0 °F - 46.4 °F 46% 30.42 in - NNE 4.6 mph - N/A   Clear
2:00 PM 71.6 °F - 48.2 °F 43% 30.39 in - NNE 6.9 mph - N/A   Clear
3:00 PM 71.6 °F - 48.2 °F 43% 30.39 in - NE 6.9 mph - N/A   Clear
4:00 PM 69.8 °F - 51.8 °F 53% 30.39 in 6.2 mi ENE 10.4 mph - N/A   Partly Cloudy
5:00 PM 68.0 °F - 53.6 °F 60% 30.42 in 6.2 mi ENE 9.2 mph - N/A   Partly Cloudy
6:00 PM 64.4 °F - 51.8 °F 64% 30.42 in 6.2 mi NE 11.5 mph - N/A   Partly Cloudy
7:00 PM 62.6 °F - 51.8 °F 68% 30.42 in 6.2 mi NE 9.2 mph - N/A   Partly Cloudy
8:00 PM 59.0 °F - 51.8 °F 77% 30.45 in 6.2 mi NNE 9.2 mph - N/A   Partly Cloudy
9:00 PM 59.0 °F - 53.6 °F 82% 30.45 in 6.2 mi ENE 5.8 mph - N/A   Scattered Clouds
10:00 PM 59.0 °F - 53.6 °F 82% 30.48 in 6.2 mi NNE 4.6 mph - N/A   Mostly Cloudy